Longue Point De, Quebec

3:32 PM EST on January 16, 2017 (GMT -0500)
Longue-Pointe-de-Mingan

Weather History for CWBT - March, 2012

Change the Weather History Date:

Thursday, March 29, 2012

  Actual Average (CYGV) Record (CYGV)
Temperature  
Mean Temperature 28 °F -  
Max Temperature 40 °F 30 °F 46 °F (1999)
Min Temperature 17 °F 15 °F 3 °F (2008)
Degree Days  
Heating Degree Days 36    
Moisture  
Dew Point 12 °F    
Average Humidity 49    
Maximum Humidity 69    
Minimum Humidity 19    
Precipitation  
Precipitation 0.00 in - - ()
Sea Level Pressure  
Sea Level Pressure 29.70 in    
Wind  
Wind Speed 5 mph ()    
Max Wind Speed 9 mph    
Max Gust Speed 18 mph    
Averages and records for this station are not official NWS values.
T = Trace of Precipitation, MM = Missing Value Source: Averaged Metar Reports

Daily Weather History Graph

Daily Weather History Graph

Search for Another Location

Airport or City:

Trip Planner

Search our weather history database for the weather conditions in past years. The results will help you decide how hot, cold, wet, or windy it might be!

Date:

Astronomy

Mar. 29, 2012 Rise Set
Actual Time 5:58 AM EDT 6:45 PM EDT
Civil Twilight 5:26 AM EDT 7:17 PM EDT
Nautical Twilight 4:46 AM EDT 7:57 PM EDT
Astronomical Twilight 4:05 AM EDT 8:39 PM EDT
Moon 9:32 AM EDT (3/29) 1:04 AM EDT (3/29)
Length of Visible Light 13h 51m
Length of Day
12h 46m
Waxing Crescent, 39% of the Moon is Illuminated
Mar 29
Waxing Crescent
Mar 30
First Quarter
Apr 6
Full
Apr 13
Last Quarter
Apr 21
New

Hourly Weather History & Observations

Time (EDT) Temp. Windchill Dew Point Humidity Pressure Visibility Wind Dir Wind Speed Gust Speed Precip Events Conditions
12:00 AM 23.4 °F 17.4 °F 10.8 °F 59% 29.85 in - NNE 4.6 mph - N/A   Unknown
1:00 AM 22.8 °F 16.7 °F 10.4 °F 59% 29.84 in - North 4.6 mph - N/A   Unknown
2:00 AM 22 °F - 10 °F 47% 29.82 in - North 3.5 mph - -  
2:00 AM 21.6 °F 16.8 °F 10.0 °F 61% 29.82 in - North 3.5 mph - N/A   Unknown
3:00 AM 21.6 °F 15.3 °F 9.9 °F 61% 29.81 in - North 4.6 mph - N/A   Unknown
4:00 AM 20.5 °F 14.0 °F 9.5 °F 63% 29.79 in - North 4.6 mph - N/A   Unknown
5:00 AM 19.2 °F 11.3 °F 8.1 °F 62% 29.79 in - North 5.8 mph - N/A   Unknown
6:00 AM 19.8 °F 10.8 °F 4.3 °F 51% 29.78 in - North 6.9 mph - N/A   Unknown
7:00 AM 20.3 °F 9.8 °F 5.7 °F 53% 29.78 in - North 9.2 mph 18.4 mph N/A   Unknown
8:00 AM 22 °F - 8 °F 41% 29.77 in - North 8.1 mph - -  
8:00 AM 22.1 °F 12.8 °F 8.2 °F 55% 29.77 in - North 8.1 mph 18.4 mph N/A   Unknown
9:00 AM 25.5 °F 16.9 °F 10.6 °F 53% 29.75 in - North 8.1 mph 18.4 mph N/A   Unknown
10:00 AM 28.8 °F 20.9 °F 12.6 °F 51% 29.73 in - North 8.1 mph - N/A   Unknown
11:00 AM 33.3 °F 27.1 °F 14.0 °F 45% 29.71 in - NNE 6.9 mph - N/A   Unknown
12:00 PM 35.8 °F 31.9 °F 15.3 °F 43% 29.70 in - North 4.6 mph - N/A   Unknown
1:00 PM 39.9 °F 36.7 °F 18.5 °F 42% 29.66 in - NNW 4.6 mph - N/A   Unknown
2:00 PM 38 °F - 22 °F 40% 29.63 in - SW 6.9 mph - -  
2:00 PM 38.3 °F 33.2 °F 22.3 °F 53% 29.63 in - SW 6.9 mph - N/A   Unknown
3:00 PM 38.3 °F 33.9 °F 21.6 °F 51% 29.61 in - SSW 5.8 mph - N/A   Unknown
4:00 PM 38.1 °F 35.7 °F 23.5 °F 56% 29.59 in - SW 3.5 mph - N/A   Unknown
5:00 PM 34.9 °F 29.0 °F 25.5 °F 69% 29.58 in - West 6.9 mph - N/A   Unknown
6:00 PM 36.5 °F 30.3 °F 13.1 °F 38% 29.58 in - NW 8.1 mph - N/A   Unknown
7:00 PM 33.6 °F 29.4 °F 8.6 °F 35% 29.59 in - NNW 4.6 mph - N/A   Unknown
8:00 PM 32 °F - 6 °F 19% 29.60 in - NNW 5.8 mph - -  
8:00 PM 31.6 °F 26.0 °F 5.9 °F 34% 29.60 in - NNW 5.8 mph - N/A   Unknown
9:00 PM 28.2 °F - 10.9 °F 48% 29.60 in - NW 1.2 mph - N/A   Unknown
10:00 PM 28.6 °F 23.5 °F 5.9 °F 38% 29.58 in - NW 4.6 mph - N/A   Unknown
11:00 PM 27.7 °F 23.8 °F 3.6 °F 36% 29.57 in - NW 3.5 mph - N/A   Unknown